QTR1432 DNKN-DNAA

Flight info

Callsign QTR1432
Flight time N/A
Altitude 28000
Route BOMVO1M BOMVO UR778 KUA UV456 ABC
Aircraft B788/H-SDE1E2E3FGHIJ2J3J4J5M1RWXY/LB1D1

Departure

Time 2026-05-08 18:44
Airport Mallam Aminu Kano International Airport (DNKN)

Arrival

Time N/A
Airport Nnamdi Azikiwe International Airport (DNAA)
Time Latitude Longitude Altitude Speed Heading
2026-05-08 18:13 12.04121 8.51283 1551 ft 0 kts 154°
2026-05-08 18:34 12.04124 8.51281 1546 ft 2 kts 154°
2026-05-08 18:34 12.04139 8.51274 1549 ft 2 kts 154°
2026-05-08 18:34 12.04155 8.51270 1549 ft 2 kts 176°
2026-05-08 18:34 12.04171 8.51273 1551 ft 2 kts 197°
2026-05-08 18:35 12.04186 8.51280 1552 ft 2 kts 205°
2026-05-08 18:35 12.04200 8.51289 1552 ft 2 kts 223°
2026-05-08 18:35 12.04205 8.51298 1552 ft 0 kts 244°
2026-05-08 18:39 12.04203 8.51293 1552 ft 1 kts 244°
2026-05-08 18:39 12.04197 8.51282 1552 ft 3 kts 244°
2026-05-08 18:39 12.04192 8.51271 1552 ft 4 kts 244°
2026-05-08 18:40 12.04176 8.51237 1552 ft 7 kts 244°
2026-05-08 18:40 12.04149 8.51187 1552 ft 9 kts 238°
2026-05-08 18:40 12.04132 8.51134 1551 ft 3 kts 296°
2026-05-08 18:40 12.04144 8.51120 1553 ft 3 kts 316°
2026-05-08 18:41 12.04160 8.51104 1553 ft 3 kts 304°
2026-05-08 18:41 12.04168 8.51078 1553 ft 6 kts 270°
2026-05-08 18:41 12.04153 8.51026 1553 ft 10 kts 242°
2026-05-08 18:41 12.04110 8.50944 1554 ft 16 kts 242°
2026-05-08 18:42 12.04050 8.50829 1554 ft 21 kts 242°
2026-05-08 18:42 12.04036 8.50792 1554 ft 20 kts 264°
2026-05-08 18:43 12.04063 8.50726 1557 ft 5 kts 339°
2026-05-08 18:43 12.04095 8.50714 1560 ft 4 kts 339°
2026-05-08 18:43 12.04138 8.50704 1563 ft 10 kts 359°
2026-05-08 18:43 12.04220 8.50778 1563 ft 27 kts 60°
2026-05-08 18:44 12.04432 8.51165 1558 ft 106 kts 60°
2026-05-08 18:44 12.04931 8.52071 1708 ft 173 kts 56°
2026-05-08 18:44 12.05566 8.53107 2795 ft 164 kts 59°
2026-05-08 18:44 12.06053 8.54177 3843 ft 175 kts 65°
2026-05-08 18:45 12.06664 8.55363 4542 ft 202 kts 62°
2026-05-08 18:45 12.07394 8.56684 5147 ft 232 kts 62°
2026-05-08 18:45 12.08363 8.58153 5724 ft 262 kts 42°
2026-05-08 18:45 12.09946 8.59090 6863 ft 267 kts 21°
2026-05-08 18:46 12.11843 8.59246 7996 ft 282 kts 353°
2026-05-08 18:46 12.13656 8.58456 9160 ft 295 kts 326°
2026-05-08 18:46 12.14985 8.56797 10222 ft 311 kts 297°
2026-05-08 18:46 12.15456 8.54566 10807 ft 340 kts 268°
2026-05-08 18:47 12.14856 8.52150 11291 ft 366 kts 244°
2026-05-08 18:47 12.13560 8.49865 12097 ft 375 kts 235°
2026-05-08 18:47 12.12087 8.47654 13235 ft 378 kts 235°
2026-05-08 18:47 12.10719 8.45359 14198 ft 384 kts 240°
2026-05-08 18:48 12.09477 8.42891 15102 ft 391 kts 242°
2026-05-08 18:48 12.08202 8.40418 15988 ft 397 kts 240°
2026-05-08 18:48 12.06822 8.37954 16870 ft 403 kts 239°
2026-05-08 18:48 12.05418 8.35450 17729 ft 409 kts 239°
2026-05-08 18:49 12.04052 8.32916 18492 ft 415 kts 240°
2026-05-08 18:49 12.02663 8.30321 19290 ft 418 kts 240°
2026-05-08 18:49 12.01244 8.27722 20036 ft 422 kts 239°
2026-05-08 18:49 11.99794 8.25085 20797 ft 427 kts 240°
2026-05-08 18:50 11.98272 8.22477 21531 ft 429 kts 231°
2026-05-08 18:50 11.96202 8.20279 22268 ft 430 kts 216°
2026-05-08 18:50 11.93657 8.18667 22941 ft 431 kts 201°
2026-05-08 18:50 11.91810 8.17924 23359 ft 433 kts 198°
2026-05-08 18:51 11.88034 8.16519 24312 ft 431 kts 198°
2026-05-08 18:51 11.85207 8.15485 25003 ft 431 kts 198°
2026-05-08 18:51 11.82390 8.14439 25709 ft 431 kts 199°
2026-05-08 18:51 11.79577 8.13385 26423 ft 431 kts 199°
2026-05-08 18:52 11.76758 8.12337 27123 ft 431 kts 199°
2026-05-08 18:52 11.74909 8.11653 27569 ft 431 kts 199°
2026-05-08 18:52 11.71074 8.10233 27810 ft 442 kts 200°
2026-05-08 18:52 11.68205 8.09166 27805 ft 435 kts 200°
2026-05-08 18:53 11.65378 8.08116 27811 ft 429 kts 200°
2026-05-08 18:53 11.63523 8.07428 27815 ft 428 kts 200°
2026-05-08 18:53 11.60717 8.06389 27803 ft 428 kts 200°
2026-05-08 18:53 11.57924 8.05353 27813 ft 428 kts 200°
2026-05-08 18:54 11.55137 8.04319 27811 ft 427 kts 200°
2026-05-08 18:54 11.52338 8.03282 27818 ft 427 kts 200°
2026-05-08 18:54 11.49548 8.02249 27823 ft 428 kts 200°
2026-05-08 18:54 11.46744 8.01210 27826 ft 427 kts 200°
2026-05-08 18:55 11.41155 7.99139 27825 ft 428 kts 200°
2026-05-08 18:55 11.38363 7.98106 27827 ft 428 kts 199°
2026-05-08 18:55 11.35555 7.97066 27821 ft 428 kts 200°